| time (UTC) | temp F | wind direction | speed MPH | gust MPH | rain 1hr in | rain 24hr in | rain mn in | humidity % | barometer mb |
| 20260902164544 | 85 | 298 | 0.0 | 3.0 | 0.00 | 0.00 | 0.00 | 66 | 1017.5 |
| 20260902163045 | 86 | 313 | 1.0 | 5.0 | 0.00 | 0.00 | 0.00 | 63 | 1017.6 |
| 20260902161541 | 84 | 315 | 0.0 | 4.0 | 0.00 | 0.00 | 0.00 | 67 | 1017.7 |
| 20260902160043 | 86 | 311 | 0.0 | 4.0 | 0.00 | 0.00 | 0.00 | 63 | 1017.8 |
| 20260902154539 | 85 | 303 | 0.0 | 4.0 | 0.00 | 0.00 | 0.00 | 67 | 1017.9 |
| 20260902153044 | 84 | 304 | 1.0 | 5.0 | 0.00 | 0.00 | 0.00 | 66 | 1017.9 |
| 20260902151537 | 84 | 291 | 0.0 | 2.0 | 0.00 | 0.00 | 0.00 | 70 | 1018.1 |
| 20260902150033 | 83 | 313 | 0.0 | 3.0 | 0.00 | 0.00 | 0.00 | 69 | 1018.3 |
| 20260902144528 | 82 | 150 | 0.0 | 4.0 | 0.00 | 0.00 | 0.00 | 70 | 1018.1 |
| 20260902143024 | 80 | 159 | 0.0 | 3.0 | 0.00 | 0.00 | 0.00 | 76 | 1018.1 |
| 20260902141520 | 77 | 136 | 2.0 | 3.0 | 0.00 | 0.00 | 0.00 | 82 | 1018.2 |
| 20260902140016 | 75 | 148 | 0.0 | 2.0 | 0.00 | 0.00 | 0.00 | 86 | 1018.1 |
| 20260902134511 | 74 | 159 | 2.0 | 3.0 | 0.00 | 0.00 | 0.00 | 89 | 1018.0 |
| 20260902133010 | 73 | 138 | 0.0 | 6.0 | 0.00 | 0.00 | 0.00 | 93 | 1018.1 |
| 20260902131502 | 71 | 134 | 1.0 | 3.0 | 0.00 | 0.00 | 0.00 | 96 | 1018.1 |
| 20260902130107 | 70 | 171 | 1.0 | 3.0 | 0.00 | 0.00 | 0.00 | 96 | 1018.0 |
| 20260902124600 | 68 | 149 | 0.0 | 0.0 | 0.00 | 0.00 | 0.00 | 96 | 1017.9 |
| 20260902123101 | 67 | 149 | 0.0 | 0.0 | 0.00 | 0.00 | 0.00 | 96 | 1017.9 |
| 20260902121556 | 66 | 149 | 0.0 | 0.0 | 0.00 | 0.00 | 0.00 | 96 | 1017.9 |
| 20260902120056 | 66 | 149 | 0.0 | 0.0 | 0.00 | 0.00 | 0.00 | 95 | 1017.9 |
| 20260902114555 | 65 | 149 | 0.0 | 2.0 | 0.00 | 0.00 | 0.00 | 95 | 1017.8 |
| 20260902113054 | 65 | 149 | 0.0 | 1.0 | 0.00 | 0.00 | 0.00 | 95 | 1017.8 |
| 20260902111558 | 65 | 149 | 0.0 | 2.0 | 0.00 | 0.00 | 0.00 | 95 | 1017.9 |
| 20260902110059 | 65 | 149 | 0.0 | 0.0 | 0.00 | 0.00 | 0.00 | 95 | 1017.9 |
| 20260902104610 | 65 | 149 | 0.0 | 0.0 | 0.00 | 0.00 | 0.00 | 95 | 1018.0 |
| 20260902103107 | 65 | 149 | 0.0 | 0.0 | 0.00 | 0.00 | 0.00 | 95 | 1017.9 |
| 20260902101600 | 65 | 149 | 0.0 | 0.0 | 0.00 | 0.00 | 0.00 | 95 | 1018.0 |
| 20260902100049 | 65 | 149 | 0.0 | 0.0 | 0.00 | 0.00 | 0.00 | 95 | 1017.9 |
| 20260902094548 | 65 | 149 | 0.0 | 0.0 | 0.00 | 0.00 | 0.00 | 95 | 1018.0 |
| 20260902093048 | 65 | 149 | 0.0 | 0.0 | 0.00 | 0.00 | 0.00 | 95 | 1017.8 |
| 20260902091549 | 65 | 149 | 0.0 | 0.0 | 0.00 | 0.00 | 0.00 | 95 | 1017.7 |
| 20260902090045 | 66 | 149 | 0.0 | 0.0 | 0.00 | 0.00 | 0.00 | 95 | 1017.7 |
| 20260902084543 | 66 | 149 | 0.0 | 0.0 | 0.00 | 0.00 | 0.00 | 95 | 1017.7 |
| 20260902083050 | 66 | 149 | 0.0 | 0.0 | 0.00 | 0.00 | 0.00 | 95 | 1017.6 |
| 20260902081541 | 66 | 149 | 0.0 | 0.0 | 0.00 | 0.00 | 0.00 | 95 | 1017.6 |
| 20260902080039 | 67 | 149 | 0.0 | 2.0 | 0.00 | 0.00 | 0.00 | 95 | 1017.3 |
| 20260902074537 | 67 | 138 | 1.0 | 3.0 | 0.00 | 0.00 | 0.00 | 95 | 1017.2 |
| 20260902073036 | 67 | 163 | 0.0 | 2.0 | 0.00 | 0.00 | 0.00 | 95 | 1017.1 |
| 20260902071536 | 67 | 163 | 1.0 | 3.0 | 0.00 | 0.00 | 0.00 | 95 | 1017.1 |
| 20260902070035 | 68 | 163 | 0.0 | 3.0 | 0.00 | 0.00 | 0.00 | 95 | 1017.2 |
| 20260902064535 | 68 | 163 | 1.0 | 2.0 | 0.00 | 0.00 | 0.00 | 95 | 1017.2 |
| 20260902063050 | 68 | 163 | 2.0 | 4.0 | 0.00 | 0.00 | 0.00 | 94 | 1017.2 |
| 20260902061556 | 67 | 150 | 0.0 | 2.0 | 0.00 | 0.00 | 0.00 | 94 | 1017.3 |
| 20260902060039 | 68 | 150 | 0.0 | 0.0 | 0.00 | 0.00 | 0.00 | 94 | 1017.3 |
| 20260902054533 | 69 | 150 | 0.0 | 2.0 | 0.00 | 0.00 | 0.00 | 93 | 1017.2 |
| 20260902053032 | 70 | 141 | 1.0 | 4.0 | 0.00 | 0.00 | 0.00 | 94 | 1017.3 |
| 20260902051528 | 69 | 144 | 0.0 | 2.0 | 0.00 | 0.00 | 0.00 | 94 | 1017.1 |
| 20260902050026 | 69 | 165 | 2.0 | 3.0 | 0.00 | 0.00 | 0.00 | 94 | 1017.0 |
| 20260902044551 | 69 | 138 | 1.0 | 3.0 | 0.00 | 0.00 | 0.00 | 93 | 1016.9 |
| 20260902043021 | 70 | 144 | 0.0 | 3.0 | 0.00 | 0.00 | 0.00 | 93 | 1016.9 |
| 20260902041520 | 70 | 162 | 1.0 | 3.0 | 0.00 | 0.00 | 0.00 | 93 | 1016.8 |
| 20260902040018 | 70 | 157 | 2.0 | 4.0 | 0.00 | 0.00 | 0.00 | 93 | 1016.7 |
| 20260902034517 | 70 | 175 | 1.0 | 3.0 | 0.00 | 0.00 | 0.00 | 93 | 1016.6 |
| 20260902033017 | 70 | 155 | 2.0 | 6.0 | 0.00 | 0.00 | 0.00 | 94 | 1016.6 |
| 20260902031536 | 70 | 168 | 1.0 | 3.0 | 0.00 | 0.00 | 0.00 | 93 | 1016.7 |
| 20260902030015 | 70 | 146 | 2.0 | 4.0 | 0.00 | 0.00 | 0.00 | 93 | 1016.7 |
| 20260902024515 | 70 | 176 | 1.0 | 3.0 | 0.00 | 0.00 | 0.00 | 93 | 1016.8 |
| 20260902023021 | 71 | 159 | 0.0 | 2.0 | 0.00 | 0.00 | 0.00 | 93 | 1016.8 |
| 20260902021514 | 71 | 171 | 0.0 | 5.0 | 0.00 | 0.00 | 0.00 | 93 | 1016.7 |
| 20260902020014 | 71 | 177 | 1.0 | 3.0 | 0.00 | 0.00 | 0.00 | 93 | 1016.7 |
| 20260902014515 | 71 | 161 | 1.0 | 3.0 | 0.00 | 0.00 | 0.00 | 93 | 1016.7 |
| 20260902013012 | 72 | 157 | 1.0 | 3.0 | 0.00 | 0.00 | 0.00 | 93 | 1016.7 |
| 20260902011516 | 72 | 155 | 0.0 | 2.0 | 0.00 | 0.00 | 0.00 | 93 | 1016.7 |
| 20260902010010 | 72 | 182 | 1.0 | 3.0 | 0.00 | 0.00 | 0.00 | 93 | 1016.7 |
| 20260902004510 | 72 | 155 | 1.0 | 3.0 | 0.00 | 0.00 | 0.00 | 92 | 1016.3 |
| 20260902003010 | 73 | 155 | 0.0 | 3.0 | 0.00 | 0.00 | 0.00 | 92 | 1016.3 |
| 20260902001510 | 74 | 153 | 1.0 | 4.0 | 0.00 | 0.00 | 0.00 | 91 | 1016.1 |
| 20260902000009 | 74 | 181 | 0.0 | 2.0 | 0.00 | 0.00 | 0.00 | 91 | 1016.0 |
| 20260901234508 | 75 | 180 | 1.0 | 2.0 | 0.00 | 0.00 | 0.00 | 90 | 1016.0 |
| 20260901233012 | 76 | 181 | 0.0 | 0.0 | 0.00 | 0.00 | 0.00 | 89 | 1016.1 |
| 20260901231507 | 77 | 180 | 0.0 | 0.0 | 0.00 | 0.00 | 0.00 | 87 | 1016.1 |
| 20260901230007 | 77 | 181 | 0.0 | 0.0 | 0.00 | 0.00 | 0.00 | 87 | 1016.0 |
| 20260901224511 | 79 | 298 | 0.0 | 0.0 | 0.00 | 0.00 | 0.00 | 83 | 1016.0 |
| 20260901223006 | 81 | 298 | 0.0 | 0.0 | 0.00 | 0.00 | 0.00 | 79 | 1016.0 |
| 20260901221505 | 81 | 298 | 0.0 | 1.0 | 0.00 | 0.00 | 0.00 | 78 | 1015.9 |
| 20260901220004 | 82 | 298 | 0.0 | 0.0 | 0.00 | 0.00 | 0.00 | 74 | 1016.0 |
| 20260901214504 | 83 | 298 | 0.0 | 2.0 | 0.00 | 0.00 | 0.00 | 69 | 1016.0 |
| 20260901213006 | 82 | 232 | 0.0 | 2.0 | 0.00 | 0.00 | 0.00 | 71 | 1016.2 |
| 20260901211503 | 82 | 300 | 0.0 | 3.0 | 0.00 | 0.00 | 0.00 | 71 | 1016.3 |
| 20260901204602 | 82 | 313 | 0.0 | 2.0 | 0.00 | 0.00 | 0.00 | 70 | 1016.4 |
| 20260901203100 | 83 | 128 | 0.0 | 4.0 | 0.00 | 0.00 | 0.00 | 66 | 1016.4 |
| 20260901201558 | 83 | 302 | 2.0 | 6.0 | 0.00 | 0.00 | 0.00 | 67 | 1016.6 |
| 20260901200057 | 84 | 338 | 0.0 | 3.0 | 0.00 | 0.00 | 0.00 | 66 | 1016.6 |
| 20260901194601 | 84 | 141 | 1.0 | 5.0 | 0.00 | 0.00 | 0.00 | 67 | 1016.9 |
| 20260901193056 | 83 | 335 | 0.0 | 3.0 | 0.00 | 0.00 | 0.00 | 69 | 1016.8 |
| 20260901191552 | 83 | 259 | 0.0 | 4.0 | 0.00 | 0.00 | 0.00 | 67 | 1016.9 |
| 20260901190050 | 84 | 312 | 1.0 | 4.0 | 0.00 | 0.00 | 0.00 | 67 | 1017.1 |
| 20260901184549 | 83 | 337 | 1.0 | 8.0 | 0.00 | 0.00 | 0.00 | 70 | 1017.3 |
| 20260901183110 | 84 | 311 | 2.0 | 8.0 | 0.00 | 0.00 | 0.00 | 67 | 1017.5 |
| 20260901181547 | 83 | 262 | 2.0 | 7.0 | 0.00 | 0.00 | 0.00 | 68 | 1017.9 |
| 20260901180047 | 83 | 252 | 2.0 | 7.0 | 0.00 | 0.00 | 0.00 | 68 | 1017.9 |
| 20260901174547 | 83 | 19 | 3.0 | 7.0 | 0.00 | 0.00 | 0.00 | 68 | 1018.2 |
| 20260901173055 | 83 | 20 | 2.0 | 9.0 | 0.00 | 0.00 | 0.00 | 67 | 1018.0 |
| 20260901171552 | 83 | 339 | 3.0 | 8.0 | 0.00 | 0.00 | 0.00 | 68 | 1017.8 |
| 20260901170053 | 83 | 305 | 3.0 | 9.0 | 0.00 | 0.00 | 0.00 | 68 | 1017.6 |